Regional Weather Roundup
Issued by NWS

Home | Current Version | Previous Version | Text Only | Print | Product List | Glossary On
Versions: 1 2 3 4 5 6 7 8 9 10 11 12 13 14 15 16 17 18 19 20 21 22 23 24 25 26 27 28 29 30 31 32 33 34 35 36 37 38 39 40 41 42 43 44 45 46 47 48 49 50
000
ASUS42 KFFC 211203
RWRGA
WEATHER ROUNDUP FOR GEORGIA
NATIONAL WEATHER SERVICE PEACHTREE CITY GA
800 AM EDT TUE APR 21 2015

NOTE: "FAIR" INDICATES FEW OR NO CLOUDS BELOW 12,000 FEET WITH NO
SIGNIFICANT WEATHER AND/OR OBSTRUCTIONS TO VISIBILITY.

* = USE WITH CAUTION. THE STATIONS MARKED WITH AN ASTERISK MAY NOT
REPORT WEATHER SUCH AS PRECIPITATION, FOG, OR THUNDER AND ARE NOT
QUALITY CONTROLLED BY NWS.

THE REMARK "TC" DENOTES TEMPERATURE READING IN DEGREES CELSIUS.

GAZ001>058-211300-
NORTH GEORGIA

CITY           SKY/WX    TMP DP  RH WIND       PRES   REMARKS
ATLANTA        MOSUNNY   52  43  71 NW6       29.96R
6HR MIN TEMP:  49; 6HR MAX TEMP:  57;

ATHENS         SUNNY     52  43  71 W3        29.94R
6HR MIN TEMP:  50; 6HR MAX TEMP:  57;

CHAMBLEE       SUNNY     50  44  80 SW5       29.97R
6HR MIN TEMP:  47; 6HR MAX TEMP:  57;

PEACHTREE CITY SUNNY     48  47  96 CALM      29.99R
6HR MIN TEMP:  46; 6HR MAX TEMP:  56;

ROME           SUNNY     47  45  93 CALM      29.97R
6HR MIN TEMP:  43; 6HR MAX TEMP:  55;

WEST ATLANTA   SUNNY     51  43  74 CALM      29.97R
6HR MIN TEMP:  49; 6HR MAX TEMP:  57;

GAINESVILLE    SUNNY     52  39  61 W7        29.96R
6HR MIN TEMP:  50; 6HR MAX TEMP:  56;

CARTERSVILLE   SUNNY     49  44  83 CALM      29.98R
6HR MIN TEMP:  45; 6HR MAX TEMP:  52;



CITY           SKY/WX    TMP DP  RH WIND       PRES   REMARKS
DALTON*        SUNNY     43  43 100 CALM      29.97R
LAWRENCEVILLE* SUNNY     50  39  66 CALM      29.95R
BLAIRSVILLE*     N/A     44  33  64 CALM      29.95R
$$

GAZ059>098-102>109-211300-
CENTRAL GEORGIA

CITY           SKY/WX    TMP DP  RH WIND       PRES   REMARKS
AUGUSTA-BUSH   SUNNY     55  49  80 W8        29.94R
6HR MIN TEMP:  52; 6HR MAX TEMP:  63;

AUGUSTA-DANIEL SUNNY     57  47  69 W3        29.94R
6HR MIN TEMP:  55; 6HR MAX TEMP:  67;

COLUMBUS       MOSUNNY   51  49  92 CALM      30.00R
6HR MIN TEMP:  49; 6HR MAX TEMP:  61;

MACON          MOSUNNY   53  50  89 CALM      29.98R
6HR MIN TEMP:  50; 6HR MAX TEMP:  62;

ROBINS AFB     MOSUNNY   56  49  78 W3        29.98R


CITY           SKY/WX    TMP DP  RH WIND       PRES   REMARKS
LAGRANGE*      MOSUNNY   50  49  97 CALM      29.99R
SYLVANIA*      PTSUNNY   58  55  91 NW6       29.95R
MILLEDGEVILLE* MOSUNNY   52  52 100 CALM      29.97R
$$

GAZ099>101-110>166-211300-
SOUTH GEORGIA

CITY           SKY/WX    TMP DP  RH WIND       PRES   REMARKS
SAVANNAH       PTSUNNY   62  58  86 W6        29.94R
6HR MIN TEMP:  60; 6HR MAX TEMP:  64;

VALDOSTA       SUNNY     62  59  90 CALM      29.97R
6HR MIN TEMP:  58; 6HR MAX TEMP:  66;

ALMA           SUNNY     60  55  83 NW3       29.97R
6HR MIN TEMP:  59; 6HR MAX TEMP:  66;

ST SIMONS      CLOUDY    65  64  97 W5        29.95R
6HR MIN TEMP:  64; 6HR MAX TEMP:  67;

FT STEWART     MOSUNNY   62  56  82 NW6       29.94R
ALBANY         MOSUNNY   55  53  93 NW3       30.02R
HUNTER AFB     PTSUNNY   62  62 100 W8        29.92R
MOODY AFB      SUNNY     60  56  86 N6        29.97R
BRUNSWICK      CLOUDY    64  63  94 W3        29.96R


CITY           SKY/WX    TMP DP  RH WIND       PRES   REMARKS
BAINBRIDGE*    SUNNY     61  55  82 N3        30.00R
MOULTRIE*      MOSUNNY   59  59 100 NW3       30.00R
VIDALIA*       PTSUNNY   59  54  82 NW5       29.97R
WAYCROSS*      SUNNY     64  62  93 N3        29.97R
DOUGLAS*       SUNNY     61  54  77 NW3       29.99R
$$


USA.gov is the U.S. government's official web portal to all federal, state and local government web resources and services.